Flag for Germany Weather past 2 weeks in Warstein, North Rhine-Westphalia, Germany

Now
32 °F

Low clouds.


Feels Like: 25 °F
Forecast: 23 / 31 °F
Wind: 8 mph from West

Location: Paderborn / Lippstadt

Current Time: Feb 2, 2015 at 2:20:30 AM

Latest Report: Feb 2, 2015 at 1:50 AM


Visibility: N/A

Pressure: 29.39 "Hg

Humidity: 93%

Dew point: 30 °F

Location of WarsteinLocation

Historic Weather in Warstein — Graph

°F

Warstein temperature yesterday

Maximum temperature yesterday: 34 °F (at 12:20 PM)
Minimum temperature yesterday: 30 °F (at 12:20 AM)
Average temperature yesterday: 32 °F

Past Weeks' High & Low Weather Summary

 TemperatureHumidityPressure
High39 °F (Jan 26, 6:20 PM)100% (Jan 20, 12:50 AM)30.36 "Hg (Jan 20, 12:50 AM)
Low21 °F (Jan 24, 4:20 AM)60% (Jan 18, 12:50 PM)28.68 "Hg (Jan 30, 1:20 AM)
Average32 °F90%29.75 "Hg
* Reported Jan 18 12:20 AM — Feb 2 12:50 AM, Warstein, Weather by CustomWeather, © 2014

Note: Actual official high and low records may vary slightly from our data, if they occured in-between our weather recording intervals... More about our weather records

Advertising

Warstein weather history for previous 24 hours

 ConditionsComfort  
Time TempWeatherWind HumidityBarometerVisibility
12:50 AM
Feb 2
32 °FLow clouds.7 mph100%29.39 "Hg4 mi
12:20 AM32 °FLow clouds.7 mph100%29.36 "Hg5 mi
11:50 PM
Feb 1
32 °FIce fog.8 mph100%29.36 "Hg1 mi
11:20 PM32 °FIce fog.7 mph100%29.36 "Hg1 mi
10:50 PM32 °FLight snow. Passing clouds.6 mph100%29.36 "Hg4 mi
10:20 PM32 °FPassing clouds.6 mph100%29.36 "Hg5 mi
9:50 PM32 °FPassing clouds.8 mph100%29.36 "Hg5 mi
9:20 PM32 °FPassing clouds.7 mph100%29.33 "Hg5 mi
8:50 PM32 °FLight rain. Partly cloudy.6 mph100%29.33 "Hg5 mi
8:20 PM32 °FLight rain. Passing clouds.6 mph100%29.33 "Hg5 mi
7:50 PM32 °FLight rain. Passing clouds.6 mph100%29.30 "Hg5 mi
7:20 PM32 °FLight snow. Passing clouds.7 mph100%29.30 "Hg5 mi
6:50 PM34 °FLight snow. Passing clouds.8 mph93%29.30 "Hg5 mi
6:20 PM32 °FLight snow. Passing clouds.8 mph100%29.30 "Hg4 mi
5:50 PM32 °FPassing clouds.7 mph100%29.27 "Hg4 mi
5:20 PM32 °FPassing clouds.8 mph100%29.27 "Hg4 mi
4:50 PM32 °FPartly sunny.7 mph100%29.27 "Hg4 mi
4:20 PM32 °FPartly sunny.7 mph100%29.27 "Hg4 mi
3:50 PM34 °FBroken clouds.6 mph93%29.24 "Hg5 mi
3:20 PM32 °FBroken clouds.5 mph100%29.24 "Hg4 mi
2:50 PM34 °FBroken clouds.7 mph87%29.24 "Hg4 mi
2:20 PM34 °FLight snow. Partly sunny.8 mph87%29.24 "Hg3 mi
1:50 PM34 °FBroken clouds.8 mph81%29.21 "HgN/A
1:20 PM34 °FPartly sunny.8 mph81%29.21 "HgN/A
12:50 PM34 °FScattered clouds.8 mph81%29.21 "HgN/A
12:20 PM34 °FScattered clouds.6 mph81%29.21 "HgN/A
11:50 AM32 °FScattered clouds.7 mph87%29.21 "HgN/A
11:20 AM32 °FScattered clouds.9 mph87%29.21 "HgN/A
10:50 AM32 °FScattered clouds.10 mph80%29.21 "HgN/A
10:20 AM32 °FScattered clouds.12 mph80%29.18 "HgN/A
9:50 AM30 °FBroken clouds.9 mph86%29.18 "HgN/A
9:20 AM30 °FBroken clouds.8 mph86%29.18 "HgN/A
8:50 AM30 °FBroken clouds.7 mph86%29.18 "HgN/A
8:20 AM30 °FBroken clouds.8 mph86%29.15 "HgN/A
7:50 AM30 °FPartly cloudy.8 mph86%29.15 "HgN/A
7:20 AM30 °FPartly cloudy.10 mph86%29.15 "HgN/A
6:50 AM30 °FPartly cloudy.12 mph86%29.15 "HgN/A
6:20 AM30 °FPartly cloudy.13 mph86%29.12 "HgN/A
5:50 AM30 °FPassing clouds.9 mph86%29.12 "HgN/A
5:20 AM30 °FPassing clouds.7 mph86%29.12 "HgN/A
4:50 AM30 °FPassing clouds.7 mph86%29.12 "HgN/A
4:20 AM30 °FPassing clouds.9 mph86%29.12 "HgN/A
3:50 AM30 °FPassing clouds.12 mph93%29.12 "HgN/A
3:20 AM30 °FPassing clouds.12 mph93%29.12 "HgN/A
2:50 AM30 °FPassing clouds.12 mph93%29.12 "HgN/A
2:20 AM30 °FPassing clouds.9 mph93%29.12 "HgN/A
Weather by CustomWeather, © 2014

See weather overviewHow to use our weather pages